Wind_Speed
11 8 12 12 17 17 6 4 14 18 15 14 16 14 9 17 19 17 22 27 31 33 35 30 28 26 24 23 23 22 22 23 24 23 21 20 19 18 18 16 16 17 17 16
7 14 11 8 12 19 21 7 12 16 13 17 15 14 15 8 15 20 27 25 27 30 34 31 31 33 31 28 27 24 26 28 24 22 21 20 20 20 19 19 19 17 16 16
12 8 16 9 4 7 6 9 11 13 9 10 14 14 5 4 5 14 23 30 29 38 37 34 33 34 33 30 27 27 27 30 29 26 23 23 23 22 21 21 18 15 13 9
8 10 15 10 6 5 6 3 5 15 16 14 17 10 18 13 8 4 15 25 29 37 37 35 34 33 33 32 30 30 30 29 29 27 28 28 27 28 25 20 18 13 8 6
6 4 15 14 5 9 4 2 8 16 15 9 16 10 8 24 18 7 11 22 32 38 39 37 35 33 32 30 31 31 30 31 30 30 31 32 31 29 25 17 11 12 10 7
10 11 7 3 8 9 2 6 17 8 9 12 9 14 12 21 30 12 11 21 29 35 37 35 34 33 31 30 28 26 27 29 30 28 29 26 24 18 19 15 10 5 6 8
4 4 3 7 4 7 3 5 4 3 3 2 18 11 2 13 23 22 19 24 29 32 35 35 35 32 29 25 19 20 20 21 19 18 18 17 14 16 11 9 5 2 4 2
3 4 2 4 2 4 4 4 1 3 2 3 10 7 3 3 7 9 27 30 31 31 33 33 32 30 26 27 26 22 20 18 16 17 17 18 16 11 8 5 3 2 1 2
2 4 2 4 2 2 4 3 6 2 3 2 4 2 1 5 8 16 21 26 27 34 31 29 27 26 22 22 22 21 21 22 21 18 15 13 11 8 7 6 6 2 1 2
4 5 0 2 2 4 3 6 3 1 4 3 1 2 2 5 7 10 13 17 22 26 26 25 25 25 26 26 25 26 23 19 17 14 12 12 12 12 9 5 4 3 1 2
1 2 4 2 1 2 2 3 3 3 1 3 2 2 4 4 10 11 11 15 23 26 25 25 24 26 30 29 29 26 21 17 14 11 13 15 12 9 8 6 4 1 1 3
3 2 3 1 1 1 1 3 1 3 3 2 1 2 5 4 10 15 15 17 22 23 25 26 28 31 33 32 26 22 19 16 13 14 16 13 11 10 8 6 3 0 2 3
3 3 3 0 2 2 1 2 2 2 2 2 2 3 5 5 10 15 20 18 20 22 24 29 34 35 32 28 26 21 17 14 15 15 14 12 10 8 6 4 2 1 2 3
4 3 1 0 2 1 4 3 1 3 2 2 2 1 2 1 8 13 18 21 21 22 26 32 34 32 29 27 22 19 16 15 16 15 13 11 9 7 4 3 2 2 3 4
6 2 3 3 3 2 1 4 3 3 1 2 2 2 3 5 5 12 21 22 22 22 25 32 34 33 30 25 21 18 16 17 17 14 12 10 8 7 5 4 4 4 5 6
6 3 4 5 6 5 3 2 4 2 1 2 0 1 3 5 11 11 16 22 22 23 26 33 34 34 30 26 21 18 17 20 17 14 12 10 8 7 6 6 4 5 7 8
5 3 4 3 6 7 4 4 5 2 2 4 3 1 5 3 6 17 20 23 25 26 28 35 37 35 30 26 21 17 20 19 17 15 13 11 9 8 7 6 6 7 9 10
6 3 1 2 4 2 3 1 2 5 5 6 1 1 4 4 4 15 19 24 25 25 26 31 36 35 29 26 22 18 23 20 18 16 13 12 10 8 7 6 7 8 10 11
2 3 2 1 2 5 3 1 3 4 2 3 6 5 0 5 4 2 12 18 21 20 21 27 31 34 31 29 24 22 25 21 18 15 14 11 9 8 8 8 8 10 12 13
3 3 2 2 1 4 4 2 2 2 4 4 1 3 5 5 2 3 3 11 14 15 16 23 26 32 33 30 25 24 25 21 18 16 12 11 10 7 10 10 11 12 14 15
1 2 3 1 2 7 5 5 2 5 2 3 5 5 3 3 5 3 6 3 10 13 15 18 21 27 33 30 26 25 24 20 15 14 14 11 7 11 12 13 13 14 15 15
5 4 2 2 3 5 2 3 2 2 2 4 7 8 3 5 6 5 5 2 8 13 16 17 18 22 28 29 25 24 24 16 15 16 13 9 13 13 14 14 14 14 16 16
2 4 3 6 5 3 2 2 3 1 1 2 7 7 8 8 6 5 3 3 6 11 12 13 15 18 24 26 24 21 18 16 16 15 13 14 14 13 14 14 15 16 16 16
4 5 3 3 1 5 10 10 7 4 2 4 6 8 9 10 10 7 4 3 4 6 7 7 9 13 20 22 20 14 14 15 17 15 14 15 14 14 15 15 16 16 16 17
4 5 4 5 10 15 15 15 10 9 11 10 8 7 7 8 7 4 3 3 5 6 8 7 7 10 15 16 15 13 15 18 16 14 15 15 14 15 15 16 16 16 17 18
8 6 5 5 2 3 2 5 4 5 10 10 9 8 7 7 5 2 2 4 5 5 6 6 7 11 14 15 15 15 17 15 13 13 14 14 14 15 16 16 17 18 18 19
Wind_Direction
268 246 227 266 222 217 220 273 324 207 203 197 226 209 221 188 191 182 192 197 197 196 196 195 198 200 203 205 205 206 206 202 204 208 210 215 221 219 223 228 241 245 253 263
269 254 232 348 274 225 215 267 292 276 190 178 213 217 223 156 206 194 188 196 186 186 196 196 198 202 205 204 204 207 207 203 207 214 218 218 221 226 230 235 239 241 245 247
251 291 312 195 341 148 218 229 262 258 225 187 184 229 230 222 238 209 207 196 188 187 189 191 195 199 203 204 201 204 200 202 207 215 214 216 224 228 227 229 223 217 214 197
237 244 251 193 168 241 165 75 316 266 228 201 185 218 224 206 191 218 188 182 177 188 188 184 190 195 199 201 204 204 209 203 205 213 220 222 226 224 220 209 203 190 163 124
240 220 220 184 190 198 176 78 313 271 241 191 193 218 186 218 217 193 165 169 177 188 185 183 185 191 194 202 204 204 205 208 209 218 219 221 222 213 200 184 125 115 111 81
245 278 259 235 146 166 61 18 295 211 243 215 186 195 198 191 213 191 160 164 170 180 182 178 177 178 180 185 192 195 203 206 207 212 209 201 195 156 138 129 146 175 228 261
311 205 255 165 149 109 108 75 289 194 216 243 170 199 162 191 202 194 168 161 167 177 179 175 174 173 171 176 185 189 188 189 188 197 193 184 150 123 139 144 153 214 274 319
172 300 242 178 227 164 118 127 262 312 277 128 166 197 188 62 331 165 166 162 170 177 176 176 176 173 174 177 183 186 185 182 159 152 137 135 137 147 159 180 122 163 202 330
343 285 126 316 207 175 129 155 150 310 222 237 149 176 217 88 65 110 134 147 156 173 177 175 173 174 174 174 172 171 164 152 141 138 139 151 149 160 160 160 151 185 68 23
327 314 359 221 86 188 163 159 126 103 323 356 33 142 86 173 146 129 138 141 155 169 169 172 168 171 177 168 159 155 151 149 152 153 154 155 152 155 158 147 155 185 97 14
271 294 295 359 43 118 315 147 99 116 259 309 15 35 326 170 155 148 146 149 158 164 163 164 163 164 164 158 155 156 157 161 164 164 166 168 160 157 153 157 168 145 9 359
263 255 290 197 287 330 25 36 196 156 230 323 80 343 322 84 144 145 149 161 167 168 166 166 165 162 162 158 163 165 169 173 175 166 162 160 159 154 161 157 157 111 352 345
299 227 267 320 296 341 324 97 269 104 73 214 95 306 2 64 130 147 143 166 171 170 168 169 168 170 169 168 171 176 178 181 168 162 162 162 162 164 159 156 178 257 300 311
296 300 297 172 39 110 205 151 234 94 113 169 226 312 124 121 136 140 155 175 177 180 178 175 176 177 177 178 182 182 182 173 170 169 166 169 169 167 170 190 221 260 289 304
346 269 339 18 348 288 249 132 160 158 187 132 335 18 64 185 179 162 168 174 174 183 190 185 184 186 185 187 187 183 181 177 179 176 173 178 175 185 194 221 244 273 296 303
343 324 341 354 346 13 11 89 189 217 97 292 276 342 35 94 141 159 178 173 176 189 199 194 195 195 193 192 191 191 192 185 184 180 185 187 192 202 213 233 262 283 298 309
326 359 23 308 350 336 6 240 194 183 199 169 212 166 150 99 155 187 196 199 199 200 199 199 201 201 198 197 197 201 192 191 190 189 193 197 204 214 227 250 276 295 300 299
307 316 17 253 7 25 237 290 221 208 224 221 321 93 72 115 213 223 219 212 214 212 206 206 205 202 201 202 202 202 196 198 196 195 197 206 215 230 245 266 277 286 297 304
288 314 6 27 185 281 320 86 159 189 340 238 221 218 209 43 48 279 229 226 227 223 215 213 212 206 203 204 204 204 201 202 200 201 205 213 226 242 259 269 285 298 303 302
274 265 100 57 94 208 256 285 267 208 25 353 5 237 209 117 63 268 315 235 226 226 227 219 218 212 209 207 208 207 206 208 206 207 212 217 223 267 273 284 292 293 292 293
167 227 184 149 235 284 245 259 289 67 250 50 51 23 201 144 213 284 324 270 214 216 210 213 221 213 209 211 208 208 210 213 209 210 215 220 252 287 269 273 279 283 287 291
183 142 186 95 12 302 235 97 92 221 159 96 74 49 47 228 243 291 327 264 195 198 198 203 209 208 207 210 209 211 209 201 215 220 219 236 271 251 258 268 276 287 291 295
277 193 189 187 215 265 273 20 6 180 121 65 30 23 7 347 334 292 257 227 185 190 194 196 201 207 206 208 210 218 214 202 217 225 232 245 245 252 264 275 281 284 289 294
244 196 217 12 282 241 275 259 261 245 255 356 342 347 348 341 335 322 304 247 220 200 199 206 207 200 202 208 210 211 205 207 216 225 236 248 251 259 265 273 281 286 290 295
216 150 195 269 285 281 284 272 267 255 254 272 282 293 305 317 309 282 231 208 177 175 185 190 199 197 199 210 209 211 216 211 216 227 238 245 251 259 269 279 285 290 295 296
194 194 173 218 267 228 341 351 347 299 260 256 255 275 282 300 304 258 174 147 142 155 165 172 171 181 196 204 207 212 213 217 224 236 244 250 258 265 275 284 289 293 293 294
Height
1499 1493 1487 1487 1485 1489 1494 1503 1506 1480 1481 1495 1491 1489 1490 1489 1492 1497 1501 1504 1508 1513 1520 1525 1529 1534 1538 1541 1544 1547 1549 1555 1557 1559 1561 1563 1565 1566 1567 1568 1569 1569 1569 1568
1500 1485 1489 1489 1484 1485 1486 1498 1500 1484 1477 1486 1489 1487 1481 1487 1490 1492 1496 1502 1506 1510 1517 1522 1525 1530 1534 1538 1542 1545 1547 1550 1554 1557 1558 1561 1563 1564 1565 1565 1566 1566 1565 1565
1497 1488 1486 1485 1490 1486 1489 1495 1496 1501 1479 1478 1486 1489 1486 1483 1488 1490 1493 1496 1504 1504 1510 1516 1521 1525 1530 1535 1539 1542 1545 1547 1549 1552 1554 1557 1559 1560 1561 1561 1561 1560 1561 1563
1488 1489 1487 1482 1490 1490 1482 1490 1494 1487 1479 1466 1470 1478 1481 1484 1488 1486 1491 1495 1499 1502 1508 1511 1516 1522 1527 1531 1535 1538 1541 1544 1546 1550 1551 1553 1553 1554 1555 1556 1556 1556 1559 1562
1482 1481 1479 1476 1475 1481 1478 1483 1486 1484 1468 1466 1466 1475 1467 1478 1484 1488 1489 1492 1494 1498 1503 1506 1512 1518 1524 1528 1532 1534 1538 1541 1543 1546 1547 1548 1549 1550 1550 1552 1557 1560 1561 1559
1482 1473 1476 1473 1475 1480 1481 1475 1479 1468 1463 1458 1458 1460 1466 1467 1466 1483 1487 1490 1491 1495 1500 1504 1510 1515 1520 1523 1528 1531 1534 1537 1539 1541 1542 1542 1545 1550 1553 1552 1556 1560 1558 1560
1477 1472 1473 1472 1475 1475 1479 1484 1474 1466 1462 1452 1450 1463 1460 1457 1462 1469 1479 1486 1488 1493 1498 1502 1507 1512 1518 1521 1525 1529 1532 1534 1536 1539 1539 1540 1546 1551 1553 1556 1556 1558 1558 1558
1490 1493 1473 1469 1468 1474 1478 1481 1480 1472 1456 1457 1453 1455 1454 1466 1466 1466 1475 1480 1484 1494 1498 1501 1506 1509 1515 1517 1522 1528 1531 1533 1533 1537 1541 1543 1546 1551 1554 1558 1556 1559 1560 1558
1490 1475 1470 1469 1466 1469 1478 1477 1483 1478 1472 1457 1458 1466 1466 1468 1470 1469 1476 1482 1486 1490 1496 1501 1505 1508 1515 1519 1522 1525 1530 1531 1534 1538 1542 1547 1548 1550 1553 1554 1556 1559 1558 1556
1482 1488 1472 1470 1467 1468 1470 1474 1475 1477 1470 1459 1458 1460 1457 1470 1474 1476 1480 1484 1488 1492 1495 1501 1504 1508 1512 1516 1519 1524 1530 1534 1537 1540 1543 1546 1548 1549 1553 1554 1556 1558 1557 1557
1486 1483 1476 1471 1470 1471 1474 1471 1472 1477 1481 1471 1459 1461 1469 1464 1471 1475 1482 1484 1486 1491 1494 1498 1501 1506 1513 1517 1522 1526 1530 1535 1539 1541 1543 1546 1548 1549 1551 1554 1556 1557 1557 1556
1485 1485 1477 1476 1476 1473 1471 1470 1468 1475 1478 1474 1473 1469 1471 1465 1466 1474 1482 1486 1490 1493 1496 1501 1505 1512 1517 1517 1524 1527 1531 1535 1538 1540 1543 1546 1548 1549 1551 1553 1555 1556 1556 1556
1489 1484 1476 1476 1477 1471 1469 1474 1472 1471 1473 1474 1471 1471 1471 1468 1471 1474 1479 1487 1492 1496 1501 1504 1511 1514 1517 1519 1524 1529 1533 1535 1537 1540 1543 1546 1548 1550 1552 1552 1554 1555 1555 1555
1488 1485 1478 1475 1472 1475 1476 1477 1473 1473 1478 1477 1472 1470 1473 1476 1476 1479 1483 1488 1494 1500 1502 1507 1512 1515 1518 1522 1525 1529 1532 1535 1538 1542 1543 1546 1548 1550 1552 1552 1554 1554 1554 1554
1488 1487 1483 1482 1482 1476 1470 1470 1474 1475 1472 1473 1475 1469 1470 1475 1478 1479 1480 1487 1494 1500 1504 1507 1510 1514 1517 1521 1525 1528 1532 1535 1539 1541 1543 1547 1547 1550 1549 1552 1553 1553 1553 1553
1489 1485 1483 1479 1479 1475 1469 1469 1472 1473 1474 1472 1472 1472 1472 1474 1477 1483 1484 1487 1491 1496 1501 1507 1511 1513 1516 1519 1524 1528 1532 1535 1537 1539 1543 1545 1547 1549 1549 1552 1551 1551 1550 1550
1493 1491 1497 1489 1486 1481 1482 1475 1475 1473 1473 1473 1475 1470 1474 1478 1480 1481 1484 1485 1487 1491 1496 1502 1506 1511 1514 1518 1523 1528 1531 1534 1536 1538 1542 1545 1546 1548 1548 1548 1549 1548 1549 1549
1498 1493 1493 1506 1499 1501 1477 1476 1474 1475 1474 1471 1470 1470 1472 1474 1477 1480 1482 1485 1487 1489 1492 1496 1500 1506 1513 1518 1523 1527 1529 1531 1534 1537 1540 1544 1547 1546 1547 1546 1546 1547 1546 1545
1500 1497 1509 1494 1498 1491 1470 1472 1474 1473 1468 1468 1472 1471 1470 1473 1475 1478 1481 1483 1486 1488 1490 1494 1499 1505 1510 1515 1519 1522 1526 1529 1532 1535 1539 1541 1544 1545 1545 1546 1545 1544 1543 1544
1500 1498 1505 1504 1498 1512 1477 1473 1474 1471 1476 1473 1472 1468 1471 1475 1483 1482 1481 1483 1484 1486 1489 1492 1497 1503 1508 1513 1517 1520 1524 1527 1530 1534 1537 1538 1541 1544 1543 1543 1542 1543 1543 1543
1499 1495 1501 1517 1517 1500 1477 1474 1472 1481 1481 1473 1472 1471 1473 1478 1481 1481 1481 1480 1481 1484 1487 1491 1497 1500 1505 1511 1514 1518 1522 1525 1529 1531 1534 1538 1539 1539 1540 1541 1542 1542 1541 1538
1500 1508 1512 1514 1526 1500 1472 1473 1472 1475 1474 1474 1475 1475 1477 1479 1481 1481 1481 1479 1480 1484 1487 1492 1495 1498 1504 1507 1511 1515 1518 1524 1527 1529 1532 1534 1536 1538 1540 1539 1540 1538 1536 1534
1506 1493 1499 1497 1489 1476 1473 1473 1474 1475 1475 1475 1475 1477 1477 1478 1479 1479 1479 1479 1481 1484 1487 1490 1494 1497 1500 1505 1509 1513 1517 1520 1524 1527 1530 1533 1534 1536 1536 1536 1535 1534 1532 1530
1492 1490 1493 1488 1476 1474 1474 1476 1476 1476 1475 1474 1474 1474 1475 1476 1477 1476 1477 1479 1481 1483 1486 1489 1492 1495 1500 1504 1508 1512 1515 1519 1522 1526 1529 1531 1532 1532 1532 1532 1531 1529 1528 1527
1489 1489 1490 1486 1474 1472 1472 1472 1473 1473 1474 1475 1476 1478 1479 1479 1480 1480 1479 1481 1482 1484 1487 1490 1492 1495 1499 1503 1507 1511 1513 1517 1520 1523 1526 1527 1527 1528 1527 1527 1527 1526 1524 1523
1479 1477 1480 1480 1471 1472 1472 1471 1470 1469 1470 1473 1474 1476 1477 1477 1477 1478 1478 1479 1481 1484 1487 1489 1492 1495 1499 1503 1506 1509 1512 1516 1518 1521 1523 1523 1523 1524 1524 1523 1522 1522 1520 1519